Burlington, CO

9:51 AM MST on February 13, 2016 (GMT -0700)
Kit Carson County

Weather History for KITR - August, 2013

Change the Weather History Date:

Wednesday, August 7, 2013

  Actual Average Record
Temperature  
Mean Temperature 67 °F 74 °F  
Max Temperature 72 °F 87 °F 100 °F (1924)
Min Temperature 61 °F 60 °F 49 °F (1921)
Cooling Degree Days 2    
Growing Degree Days 16 (Base 50)    
Moisture  
Dew Point 59 °F    
Average Humidity 82    
Maximum Humidity 94    
Minimum Humidity 57    
Precipitation  
Precipitation 0.17 in 0.07 in 1.67 in (2008)
Month to date precipitation 0.27 0.55  
Year to date precipitation 8.80 12.29  
Sea Level Pressure  
Sea Level Pressure 30.00 in    
Wind  
Wind Speed 9 mph (NE)    
Max Wind Speed 17 mph    
Max Gust Speed 28 mph    
Visibility 10 miles    
Events Rain , Thunderstorm    
T = Trace of Precipitation, MM = Missing Value Source: NWS Daily Summary

Daily Weather History Graph

Daily Weather History Graph

Search for Another Location

Airport or City:

Trip Planner

Search our weather history database for the weather conditions in past years. The results will help you decide how hot, cold, wet, or windy it might be!

Date:

Astronomy

Aug. 07, 2013 Rise Set
Actual Time 5:55 AM MDT 7:54 PM MDT
Civil Twilight 5:25 AM MDT 8:23 PM MDT
Nautical Twilight 4:49 AM MDT 8:58 PM MDT
Astronomical Twilight 4:11 AM MDT 9:37 PM MDT
Moon 6:44 AM MDT (8/7) 8:03 PM MDT (8/7)
Length of Visible Light 14h 57m
Length of Day
13h 59m
New Moon, 1% of the Moon is Illuminated
Aug 7
New Moon
Aug 14
First Quarter
Aug 20
Full
Aug 28
Last Quarter
Sep 5
New

Hourly Weather History & Observations

Time (MDT) Temp. Dew Point Humidity Pressure Visibility Wind Dir Wind Speed Gust Speed Precip Events Conditions
12:53 AM 64.9 °F 57.9 °F 78% 29.90 in 10.0 mi NNE 16.1 mph 23.0 mph N/A   Partly Cloudy
1:53 AM 66.9 °F 55.0 °F 66% 29.87 in 10.0 mi NE 17.3 mph 27.6 mph N/A   Clear
2:53 AM 66.9 °F 55.0 °F 66% 29.86 in 10.0 mi SSE 12.7 mph - N/A   Clear
3:53 AM 64.0 °F 55.0 °F 73% 29.91 in 10.0 mi ENE 8.1 mph - N/A   Clear
4:53 AM 62.1 °F 55.9 °F 80% 29.91 in 10.0 mi ENE 5.8 mph - N/A   Clear
5:53 AM 62.1 °F 55.9 °F 80% 29.91 in 10.0 mi Calm Calm - N/A   Clear
6:53 AM 64.0 °F 57.0 °F 78% 29.92 in 10.0 mi Calm Calm - N/A   Clear
7:53 AM 66.9 °F 55.0 °F 66% 29.94 in 10.0 mi East 5.8 mph - N/A   Clear
8:53 AM 68.0 °F 55.0 °F 63% 29.97 in 10.0 mi ESE 6.9 mph - N/A   Scattered Clouds
9:53 AM 68.0 °F 55.9 °F 65% 29.99 in 10.0 mi East 11.5 mph - N/A   Overcast
10:53 AM 70.0 °F 55.9 °F 61% 30.00 in 10.0 mi ESE 8.1 mph - N/A   Partly Cloudy
11:53 AM 71.1 °F 55.0 °F 57% 30.01 in 10.0 mi West 6.9 mph - N/A   Mostly Cloudy
12:53 PM 69.1 °F 57.0 °F 65% 30.03 in 10.0 mi Calm Calm - 0.00 in Rain Light Rain
1:53 PM 66.9 °F 60.1 °F 79% 30.02 in 10.0 mi North 4.6 mph - 0.00 in   Overcast
2:53 PM 66.9 °F 60.1 °F 79% 30.01 in 10.0 mi North 9.2 mph - N/A   Overcast
3:53 PM 68.0 °F 59.0 °F 73% 29.99 in 10.0 mi NNE 9.2 mph - N/A   Overcast
4:53 PM 68.0 °F 59.0 °F 73% 29.99 in 10.0 mi NNE 9.2 mph - N/A   Overcast
5:53 PM 66.0 °F 60.1 °F 81% 29.98 in 10.0 mi NNE 9.2 mph - 0.00 in   Overcast
6:53 PM 66.0 °F 61.0 °F 84% 29.97 in 10.0 mi NNW 4.6 mph - N/A   Mostly Cloudy
7:51 PM 64.4 °F 60.8 °F 88% 30.09 in 10.0 mi NNW 10.4 mph - 0.08 in Rain , Thunderstorm Light Thunderstorms and Rain
7:53 PM 64.0 °F 61.0 °F 90% 29.97 in 10.0 mi NNW 10.4 mph - 0.09 in Rain , Thunderstorm Light Thunderstorms and Rain
8:12 PM 64.4 °F 62.6 °F 94% 30.12 in 5.0 mi West 8.1 mph - 0.03 in Rain Rain
8:21 PM 64.4 °F 60.8 °F 88% 30.10 in 5.0 mi North 9.2 mph - 0.06 in Rain , Thunderstorm Light Thunderstorms and Rain
8:34 PM 62.6 °F 60.8 °F 94% 30.09 in 10.0 mi North 8.1 mph - 0.07 in Rain , Thunderstorm Light Rain
8:45 PM 62.6 °F 60.8 °F 94% 30.09 in 10.0 mi North 9.2 mph - 0.08 in Rain Light Rain
8:53 PM 62.1 °F 60.1 °F 93% 29.96 in 10.0 mi North 9.2 mph - 0.08 in Rain Light Rain
9:43 PM 62.6 °F 60.8 °F 94% 30.09 in 10.0 mi ENE 9.2 mph - 0.00 in   Overcast
9:53 PM 62.1 °F 60.1 °F 93% 29.97 in 10.0 mi ENE 11.5 mph - 0.00 in   Mostly Cloudy
10:34 PM 62.6 °F 60.8 °F 94% 30.07 in 10.0 mi NE 8.1 mph - N/A   Overcast
10:53 PM 63.0 °F 61.0 °F 93% 29.94 in 10.0 mi East 8.1 mph - N/A   Overcast
11:09 PM 62.6 °F 60.8 °F 94% 30.06 in 10.0 mi East 5.8 mph - N/A   Mostly Cloudy
11:19 PM 62.6 °F 60.8 °F 94% 30.07 in 10.0 mi SE 6.9 mph - N/A   Mostly Cloudy
11:29 PM 62.6 °F 60.8 °F 94% 30.07 in 10.0 mi ESE 3.5 mph - N/A   Scattered Clouds
11:38 PM 62.6 °F 60.8 °F 94% 30.07 in 10.0 mi East 4.6 mph - N/A   Mostly Cloudy
11:50 PM 62.6 °F 60.8 °F 94% 30.08 in 10.0 mi East 5.8 mph - N/A   Scattered Clouds
11:53 PM 62.1 °F 59.0 °F 90% 29.94 in 10.0 mi East 6.9 mph - N/A   Scattered Clouds